Location: Moscow
(55.7500°N, 37.5830°E)
Time: 00:03:09
(UTC+03:00)

COSMOS 2251 DEB - Pass Details

Date: 04 July 2022
Orbit: 738 x 847 km, 74.1° (Epoch: 17 August)

Event Time Altitude Azimuth Distance (km) Brightness Sun altitude
Rises 22:47:28 0° 291° (WNW) 3,310 ? -8.2°
Reaches altitude 10° 22:51:38 10° 322° (NW) 2,353 ? -8.5°
Maximum altitude 22:53:40 12° 344° (NNW) 2,197 ? -8.6°
Drops below altitude 10° 22:55:41 10° 7° (N) 2,327 ? -8.7°
Sets 22:59:45 0° 38° (NE) 3,230 ? -8.9°
